TimeEST,TemperatureF,Dew PointF,Humidity,Sea Level PressureIn,VisibilityMPH,Wind Direction,Wind SpeedMPH,Gust SpeedMPH,PrecipitationIn,Events,Conditions,WindDirDegrees,DateUTC
12:53 AM,52.0,45.0,77,30.15,10.0,SW,6.9,-,N/A,,Mostly Cloudy,220,2013-01-01 05:53:00
1:53 AM,53.1,44.1,71,30.14,10.0,WSW,4.6,-,N/A,,Overcast,250,2013-01-01 06:53:00
2:53 AM,51.1,43.0,74,30.13,10.0,Calm,Calm,-,N/A,,Mostly Cloudy,0,2013-01-01 07:53:00
3:53 AM,51.1,45.0,80,30.12,10.0,Calm,Calm,-,N/A,,Overcast,0,2013-01-01 08:53:00
4:53 AM,52.0,44.1,74,30.09,10.0,WNW,3.5,-,N/A,,Partly Cloudy,290,2013-01-01 09:53:00
5:53 AM,51.1,44.1,77,30.11,10.0,Calm,Calm,-,N/A,,Overcast,0,2013-01-01 10:53:00
6:53 AM,50.0,44.1,80,30.11,10.0,Calm,Calm,-,N/A,,Overcast,0,2013-01-01 11:53:00
7:53 AM,54.0,46.0,75,30.12,10.0,WSW,6.9,-,N/A,,Mostly Cloudy,250,2013-01-01 12:53:00
8:53 AM,54.0,46.0,75,30.13,10.0,Calm,Calm,-,N/A,,Overcast,0,2013-01-01 13:53:00
9:53 AM,55.0,46.9,74,30.15,10.0,Calm,Calm,-,N/A,,Overcast,0,2013-01-01 14:53:00
10:53 AM,57.0,46.9,69,30.15,10.0,West,4.6,-,N/A,,Overcast,280,2013-01-01 15:53:00
11:53 AM,57.0,48.0,72,30.12,10.0,West,3.5,-,N/A,,Overcast,280,2013-01-01 16:53:00
12:53 PM,62.1,50.0,65,30.08,10.0,West,6.9,-,0.00,,Mostly Cloudy,260,2013-01-01 17:53:00
2:53 PM,60.1,50.0,69,30.04,10.0,South,4.6,-,N/A,,Overcast,180,2013-01-01 19:53:00
3:53 PM,59.0,50.0,72,30.04,10.0,South,6.9,-,N/A,,Mostly Cloudy,190,2013-01-01 20:53:00
4:53 PM,57.0,50.0,77,30.02,10.0,SSW,3.5,-,N/A,,Overcast,200,2013-01-01 21:53:00
6:53 PM,55.9,52.0,87,30.02,10.0,South,4.6,-,N/A,,Overcast,190,2013-01-01 23:53:00
7:53 PM,55.9,53.1,90,30.00,10.0,SW,5.8,-,N/A,,Overcast,220,2013-01-02 00:53:00
8:53 PM,57.0,53.1,87,29.99,10.0,SSW,4.6,-,N/A,,Overcast,200,2013-01-02 01:53:00
9:53 PM,55.9,52.0,87,29.99,10.0,NNE,3.5,-,N/A,,Overcast,20,2013-01-02 02:53:00
10:53 PM,55.0,52.0,89,29.97,10.0,Calm,Calm,-,N/A,,Overcast,0,2013-01-02 03:53:00
11:53 PM,51.1,50.0,96,29.96,2.5,Calm,Calm,-,N/A,,Partly Cloudy,0,2013-01-02 04:53:00